Milwaukee, WI

4:25 PM CST on December 12, 2019 (GMT -0600)
Gen Mitchell International

Weather History for KMKE - September, 2019

Change the Weather History Date:

Saturday, September 7, 2019

  Actual Average Record
Temperature  
Mean Temperature 66 °F 67 °F  
Max Temperature 75 °F 75 °F 97 °F (1939)
Min Temperature 55 °F 59 °F 41 °F (1956)
Degree Days  
Heating Degree Days 0 2  
Month to date heating degree days 6 10  
Since 1 July heating degree days 8 36  
Cooling Degree Days 0 4  
Month to date cooling degree days 19 29  
Year to date cooling degree days 625 594  
Growing Degree Days 16 (Base 50)    
Moisture  
Dew Point 54 °F    
Average Humidity 70    
Maximum Humidity 87    
Minimum Humidity 43    
Precipitation  
Precipitation 0.00 in 0.10 in 2.61 in (1916)
Month to date precipitation 0.26 0.72  
Year to date precipitation 28.67 24.90  
Snow  
Snow 0.00 in 0.00 in 0.00 in (2018)
Month to date snowfall 0.0 0.0  
Since 1 July snowfall 0.0 0.0  
Since 1 September snowfall 0.0 0.0  
Snow Depth 0.00 in    
Sea Level Pressure  
Sea Level Pressure 30.03 in    
Wind  
Wind Speed 5 mph ()    
Max Wind Speed 17 mph    
Max Gust Speed 24 mph    
Visibility 10.0 miles    
Events      
T = Trace of Precipitation, MM = Missing Value Source: Averaged Metar Reports

Daily Weather History Graph

Daily Weather History Graph

Search for Another Location

Airport or City:

Astronomy

Sep. 07, 2019 Rise Set
Actual Time 6:22 AM CDT 7:16 PM CDT
Civil Twilight 5:53 AM CDT 7:44 PM CDT
Nautical Twilight 5:19 AM CDT 8:19 PM CDT
Astronomical Twilight 4:43 AM CDT 8:54 PM CDT
Moon 3:39 PM CDT (9/7) 12:07 AM CDT (9/7)
Length of Visible Light 13h 51m
Length of Day
12h 53m
Waxing Gibbous, 66% of the Moon is Illuminated
Sep 7
Waxing Gibbous
Sep 13
Full
Sep 21
Last Quarter
Sep 28
New
Oct 5
First Quarter

Hourly Weather History & Observations

Time (CDT) Temp. Dew Point Humidity Pressure Visibility Wind Dir Wind Speed Gust Speed Precip Events Conditions
12:52 AM 57.9 °F 53.1 °F 84% 30.05 in 10.0 mi Calm Calm - N/A   Clear
1:52 AM 55.9 °F 52.0 °F 87% 30.05 in 10.0 mi WSW 3.5 mph - N/A   Clear
2:52 AM 57.0 °F 53.1 °F 87% 30.04 in 10.0 mi WNW 3.5 mph - N/A   Clear
3:52 AM 57.0 °F 52.0 °F 83% 30.04 in 10.0 mi WNW 3.5 mph - N/A   Clear
4:52 AM 57.9 °F 52.0 °F 81% 30.03 in 10.0 mi West 3.5 mph - N/A   Partly Cloudy
5:52 AM 57.0 °F 52.0 °F 83% 30.04 in 10.0 mi West 6.9 mph - N/A   Partly Cloudy
6:52 AM 57.0 °F 52.0 °F 83% 30.05 in 10.0 mi SW 3.5 mph - N/A   Scattered Clouds
7:52 AM 61.0 °F 54.0 °F 78% 30.04 in 10.0 mi WSW 9.2 mph - N/A   Scattered Clouds
8:52 AM 66.0 °F 55.0 °F 68% 30.03 in 10.0 mi West 10.4 mph - N/A   Mostly Cloudy
9:52 AM 68.0 °F 55.9 °F 65% 30.02 in 10.0 mi WSW 10.4 mph - N/A   Mostly Cloudy
10:52 AM 73.0 °F 57.0 °F 57% 30.00 in 10.0 mi West 13.8 mph 24.2 mph N/A   Mostly Cloudy
11:52 AM 73.0 °F 57.0 °F 57% 30.01 in 10.0 mi West 11.5 mph - N/A   Mostly Cloudy
12:52 PM 73.9 °F 55.0 °F 52% 30.00 in 10.0 mi WNW 15.0 mph - N/A   Mostly Cloudy
1:52 PM 75.9 °F 54.0 °F 46% 30.00 in 10.0 mi WNW 11.5 mph 23.0 mph N/A   Mostly Cloudy
2:52 PM 75.0 °F 52.0 °F 44% 30.00 in 10.0 mi NW 11.5 mph - N/A   Mostly Cloudy
3:52 PM 73.9 °F 52.0 °F 46% 30.01 in 10.0 mi WNW 8.1 mph - N/A   Mostly Cloudy
4:52 PM 73.9 °F 51.1 °F 45% 30.02 in 10.0 mi NW 10.4 mph - N/A   Mostly Cloudy
5:52 PM 68.0 °F 55.0 °F 63% 30.03 in 10.0 mi NE 8.1 mph - N/A   Mostly Cloudy
6:52 PM 66.0 °F 55.9 °F 70% 30.03 in 10.0 mi NNE 5.8 mph - N/A   Overcast
7:52 PM 64.9 °F 57.9 °F 78% 30.04 in 10.0 mi ENE 4.6 mph - N/A   Overcast
8:52 PM 64.0 °F 57.0 °F 78% 30.04 in 10.0 mi Calm Calm - N/A   Mostly Cloudy
9:52 PM 64.0 °F 57.0 °F 78% 30.05 in 10.0 mi Calm Calm - N/A   Overcast
10:52 PM 62.1 °F 57.0 °F 84% 30.05 in 10.0 mi NNE 4.6 mph - N/A   Mostly Cloudy
11:52 PM 62.1 °F 57.0 °F 84% 30.07 in 10.0 mi North 5.8 mph - N/A   Overcast